THORAD DELTA 1 DEB, 8159

Orbit data source: Space-Track

THORAD DELTA 1 DEB, 8159 is space debris in SSO originally from a launch on Fri, 15 Nov 1974 UTC launched from the Air Force Western Test Range (AFWTR). Debris objects in space refer to the collection of defunct objects orbiting the Earth. Examples of debris include non-operational satellites, rocket bodies, and fragments generated from explosions, collisions, or faulty payload assembly.

Loading next visibility...
Identifier
8159, 1974-089Z
Orbit
SSO
Country
Flag of USUS
Related business
Manufacturer
Unknown
Mission
Spacecraft
Bus & Motor
Unknown
Mass
Unknown
Launch date (UTC)
1974-11-15 (51 years ago)
Launch vehicle
Unknown
Launch site
Air Force Western Test Range (AFWTR)
Object type
Payload
Rocket body
Debris
Shape & HBR
Unknown shape, 1.1 m
Radar Cross Section
Small (<0.1 m²)

Expand to show TLE details & history
Last TLE update: 1 day ago

TLE from 1 day ago
0 THORAD DELTA 1 DEB
1 08159U 74089Z   26034.51549612  .00001262  00000-0  67156-2 0  9997
2 08159 101.3899  58.3218 0031246 134.3901 225.9747 12.68326480341857
Epoch: 2026-02-03T12:22Z
TLE epoch observation values (Epoch: 2026-02-03T12:22:18.864Z)
Latitude
-0.00005°
Longitude
99.04789°
Altitude
1,408.284 km
Speed
7.148 km/s
True Right ascension
03h 53m 17s
True Declination
0° 00' 00"
Sunlit
Object was in daylight at epoch
Visualization orbit readout
Latitude
Unknown
Longitude
Unknown
Altitude
Unknown
Speed
Unknown
Apparent Right ascension
Unknown
Apparent Declination
Unknown
Sunlit
N/A
Visualization observer readout
Local Sidereal Time
19:44:42
Azimuth
Unknown
Elevation
Unknown
Doppler factor
Unknown
Orbital elements
Apogee altitude
1,410.527 km
Perigee altitude
1,362.006 km
Semi-major axis
7,764.403 km
Eccentricity
0.00312
Inclination
101.3899°
RAAN
58.3218°
Arg. of periapsis
134.3901°
True anomaly
225.71795°
Mean anomaly
225.9747°
Eccentric anomaly
225.84625°
Mean motion
3.17235 °/min
Orbital period
113.48 mins
BSTAR
0.0067156
Loading maneuver chart data...
Computing Atmospheric mass density...

Documentation

Showing up to 5 results
|